W42 Mind's Eye Observatory, Vero Beach.  Observer J. T. Grage.  0.30-m f/3.3
    SCT + CMO.
Y05 SONEAR Wykrota-CEAMIG, Serra da Piedade.  Observers C. Jacques, A.
    Caetano, E. Pimentel.  Measurer C. Jacques.  0.45-m f/2.9 reflector + CMO.
First and last observations above in comparison with prediction:
Residuals in seconds of arc (or zero decimals in degrees), reference and Delta-T
240704 F52  103+   11+    240706 J95  113+   23+    MPO 34019   +75.0 days
Orbital elements:
2002 MR3                                            PHA, Earth MOID = 0.0417 AU
Epoch 2024 Mar. 31.0 TT = JDT 2460400.5                 Veres                   
M 338.74663              (2000.0)            P               Q                  
n   0.53718742     Peri.   67.36942     -0.98668603     -0.03683486             
a   1.4987142      Node   110.22247     -0.01922982     -0.94075941             
e   0.6174668      Incl.    9.71903     +0.16149577     -0.33706812             
P   1.83           H   21.96          G   0.15           U   0                  
Residuals in seconds of arc
020630 704  0.3+  1.9-    020704 185  0.5+  0.4-    240705 G02  0.0   0.2+
020630 704  0.6+  0.7-    020704 151  0.2-  0.5+    240705 J04  0.2-  0.0
020630 704  0.3+  1.9-    020704 185  0.4-  0.3-    240705 J04  0.3+  0.3-
020630 704  1.1+  1.8-    020704 151  0.4-  0.2+    240705 595  0.0   0.2-
020630 704  0.0   1.4-    020704 151  0.3-  0.2+    240705 L34  0.4+  0.5+
020701 649  0.2-  0.1+    020704 185  0.6+  0.7-    240705 K83  0.2+  0.0
020701 649  0.4-  0.4+    020704 151  0.1+  1.4-    240705 L34  0.1+  0.1-
020701 649  0.4-  0.4+    020704 151  0.1+  0.7+    240705 K83  0.1-  0.0
020701 704  0.5-  0.8-    020704 151  0.1-  0.3+    240705 126  0.7+  0.9-
020701 704 (4.1+  0.1+)   020704 151  0.2+  0.3+    240705 K83  0.1-  0.7-
020701 704  0.7+  0.6-    020704 118  0.6+  0.1+    240705 126  0.7+  0.3-
020701 704  0.2+  0.3-    020704 118  0.2+  1.3-    240705 104  0.1-  0.4+
020701 557  0.1+  0.5+    020704 118  0.8+  1.0-    240705 104  0.0   0.1+
020701 557 (2.2+  0.6+)   020705 734  0.4+  0.1+    240705 807  0.1+  0.1-
020701 557  0.8+  0.5+    020705 734  1.0-  1.1-    240705 807  0.3+  0.3-
020701 557  0.8+  0.2+    020705 734  1.0+  0.5-    240705 807  0.0   0.1-
020701 118  0.3-  0.6+    020705 118 (0.5+  1.4-)   240705 807  0.1+  0.1-
020701 118  0.4-  0.2-    020705 118  0.5-  0.6-    240706 Y05  0.2-  0.0
020701 118  0.6-  0.8+    020705 118  1.0+  0.8+    240706 Y05  0.0   0.0
020701 118  0.7-  0.2+    020705 118  0.3-  0.0     240706 Y05  0.4-  0.3+
020701 118  0.5+  0.8-    020706 670 (2.5+  1.6-)   240706 H21  0.2+  0.1-
020701 620  0.4+  0.8+    020706 670  0.4+  1.4+    240706 H21  0.1+  0.1+
020701 620  0.2-  1.7+    020707 118  0.6-  0.6+    240706 H21  0.0   0.4+
020701 620  0.6-  1.3+    020707 246  0.0   0.3+    240706 H21  0.0   0.2+
020701 620  0.2+  1.0+    020707 246  0.2-  0.4+    240706 858  0.2+  0.1+
020701 J95 (6.0-  0.6-)   020707 246  0.0   0.2+    240706 W42  0.2-  0.2+
020701 J95  1.2+  0.8-    020707 246  0.1-  0.2+    240706 W42  0.1+  0.1-
020702 J95  0.1+  1.6-    020707 246  0.0   0.5+    240706 858  0.2+  0.0
020702 704  0.6-  0.5-    020707 118  0.2-  0.2-    240706 W42  0.2+  0.0
020702 704  0.1+  0.2-    020707 118  0.2-  0.7+    240706 858  0.5-  0.1+
020702 704  0.1+  0.1+    240704 F52  0.1+  0.1+    240706 Q06  0.1-  0.0
020702 704  0.1+  0.4-    240704 F52  0.0   0.1+    240706 Q06  0.5-  0.0
020702 704  0.2-  0.7-    240705 T05  0.1+  0.1+    240706 Q06  0.7-  0.2+
020702 704  0.0   0.0     240705 T05  0.0   0.7+    240706 C82  0.0   0.8-
020702 704  0.0   0.5-    240705 T05  0.2+  0.1+    240706 M21  0.6-  0.6+
020702 704  0.0   0.5+    240705 T05  0.5+  0.4-    240706 C82 (0.9+  0.7+)
020702 704  0.6-  0.6-    240705 T05  1.0+  0.3-    240706 M21  0.0   0.1+
020703 670  0.1+  0.0     240705 T05  0.7+  0.7-    240706 M21  0.1+  0.2+
020703 670  0.6+  0.9+    240705 T05  0.8+  1.0-    240706 958  0.5+  0.0
020703 J95  0.8-  1.6-    240705 M28  0.5+  1.0-    240706 958  0.1-  1.2+
020703 J95  0.8+  0.4-    240705 M28  0.5-  0.3+    240706 I93  0.3-  0.3+
020704 J95  1.4-  0.3-    240705 M28  0.3-  0.2+    240706 958  0.1-  0.3+
020704 587  2.5+  0.5+    240705 M45 (0.7-  1.0-)   240706 I93  0.5-  0.1+
020704 587  0.9-  0.9-    240705 M45 (0.6+  0.9-)   240706 L90  1.0-  0.8-
020704 587  0.2+  0.3-    240705 M45  0.1+  0.5-    240706 I93  0.2-  0.3+
020704 587  0.1-  0.3+    240705 M45 (0.3+  0.6-)   240706 J95  0.1+  0.3+
020704 587  0.1-  0.2-    240705 L04  0.5+  0.1-    240706 J95  0.0   0.2+
020704 185  0.0   0.3-    240705 L04  0.4+  0.0     240706 L90  0.5+  0.7-
020704 185  0.1+  0.7-    240705 595  0.0   0.2+    240706 L90  2.8+  1.3-
020704 185  0.0   0.7-    240705 G02  0.9+  0.0     240706 J95  0.0   0.1-
020704 151  0.1+  0.2+    240705 595  0.2+  0.7-
020704 185  0.1-  0.0     240705 G02  0.7+  0.3-
Ephemeris:
2002 MR3                 a,e,i = 1.50, 0.62, 10                  q = 0.5733
Date    TT    R. A. (2000) Decl.     Delta      r    Elong.  Phase     V
2024 06 07    07 02 12.6 +38 40 22   0.3265  0.7514    30.3   137.0    25.4
...
2024 06 22    08 54 26.5 +44 41 28   0.1427  0.9128    40.7   133.5    23.6
...
2024 06 30    12 33 03.1 +34 03 49   0.08184 1.0009    76.6    98.8    20.1
...
2024 07 06    15 12 01.5 +02 45 53   0.09605 1.0661   118.6    56.8    19.1
2024 07 07    15 28 13.0 -01 15 55   0.1035  1.0769   123.2    52.2    19.1
2024 07 08    15 42 13.4 -04 43 48   0.1118  1.0876   126.9    48.3    19.2
...
2024 07 14    16 36 39.9 -17 13 45   0.1730  1.1512   138.1    36.1    19.9
...
2024 07 22    17 12 37.5 -23 50 23   0.2687  1.2335   139.8    32.1    20.9
...
2024 08 06    17 48 06.9 -28 05 18   0.4686  1.3794   133.5    32.2    22.4
A. U. Tomatic                (C) Copyright 2024 MPC           M.P.E.C. 2024-N77
    
    
More information about the Iaude
mailing list